Regional Weather Roundup
Issued by NWS

Home | Current Version | Previous Version | Text Only | Print | Product List | Glossary Off
Versions: 1 2 3 4 5 6 7 8 9 10 11 12 13 14 15 16 17 18 19 20 21 22 23 24 25 26 27 28 29 30 31 32 33 34 35 36 37 38 39 40 41 42 43 44 45 46 47 48 49 50

000
ASUS43 KIND 180309
RWRIN

WEATHER ROUNDUP FOR INDIANA
NATIONAL WEATHER SERVICE INDIANAPOLIS IN
1000 PM EST TUE JAN 17 2017

NOTE: "FAIR" INDICATES FEW OR NO CLOUDS BELOW 12,000 FEET WITH NO
SIGNIFICANT WEATHER AND/OR OBSTRUCTIONS TO VISIBILITY.

* - STATION DOES NOT REPORT WEATHER SUCH AS PRECIPITATION OR FOG.

+ - STATION NOT QUALITY CONTROLLED BY THE NATIONAL WEATHER SERVICE.
    USE DATA WITH CAUTION...ESPECIALLY DEWPOINT AND RELATIVE
    HUMIDITY OBSERVATIONS.

INZ001>003-010>013-019-020-180400-
NORTHWEST INDIANA

CITY           SKY/WX    TMP DP  RH WIND       PRES   REMARKS
GARY /AIRPORT/ CLOUDY    37  36  93 W9G21     30.01R FOG
KNOX *+        CLOUDY    34  28  80 W12       30.00S WCI  25
LA PORTE +     CLOUDY    35  34  96 W8        29.99S FOG     WCI  28
MICHIGAN CITY+ CLOUDY    36  36 100 W9G16     29.99S FOG
MONTICELLO +   CLOUDY    36  34  94 W12G17    30.03S
RENSSELAER +   CLOUDY    36  36 100 W14G21    30.03S FOG
VALPARAISO     CLOUDY    36  35  96 W14       30.00S FOG

$$

LMZ046-743>745-180400-
SOUTHERN LAKE MICHIGAN

STATION/POSITION TIME  TEMP    WIND        PRES    WAVE
                       AIR SEA DIR/SP/G            HT
                 (UTC) (F)     (DEG/KT/KT) (MB)    (FT)
BURNS HARBOR     0240   35     250/ 12/ 15 1016.3R

$$

INZ004-005-014>016-021>024-180400-
NORTH CENTRAL INDIANA

CITY           SKY/WX    TMP DP  RH WIND       PRES   REMARKS
GOSHEN         CLOUDY    36  33  89 W16       29.97R FOG
LOGANSPORT +   CLOUDY    36  34  93 W10       30.03S FOG
PERU/GRISSOM   DRIZZLE   37  37 100 W15       30.00R
ROCHESTER +    CLOUDY    37  37 100 W10G17    30.01S FOG
SOUTH BEND     CLOUDY    35  35 100 W9        29.98S FOG     WCI  28
WARSAW +       CLOUDY    36  32  87 W13G18    29.99R HAZE

$$

INZ006>009-017-018-025>027-180400-
NORTHEAST INDIANA

CITY           SKY/WX    TMP DP  RH WIND       PRES   REMARKS
ANGOLA *+      CLOUDY    37  37 100 W12       29.94S
AUBURN +       CLOUDY    37  36  93 W12       29.97S FOG
FORT WAYNE     CLOUDY    39  36  89 W17       29.98R
HUNTINGTON +   CLOUDY    38  37  96 W18G25    29.99S
KENDALLVILLE + CLOUDY    37  37 100 W17G26    29.96S FOG

$$

INZ028-029-035-036-043>045-051>053-180400-
WEST CENTRAL INDIANA

CITY           SKY/WX    TMP DP  RH WIND       PRES   REMARKS
CRAWFORDSVL +  CLOUDY    36  36 100 W13G21    30.06S FOG
GREENCASTLE +  CLOUDY    37  36  93 W8        30.07R
LAFAYETTE      CLOUDY    36  36 100 W13G20    30.05R FOG
TERRE HAUTE    CLOUDY    41  36  82 W12       30.09R

$$

INZ030>032-037>040-046>048-054>057-064-065-180400-
CENTRAL INDIANA

CITY           SKY/WX    TMP DP  RH WIND       PRES   REMARKS
CP ATTERBURY + CLOUDY    43  39  87 W8        30.06S
COLUMBUS       CLOUDY    43  43 100 SW9       30.06R
FISHERS *+     CLOUDY    39  39 100 W10G21    30.04R
FRANKFORT +    CLOUDY    40  37  91 W20G26    30.06R
GREENWOOD *+   CLOUDY    43  42  97 W9G17     30.05R
INDIANAPOLIS   CLOUDY    41  37  86 W16       30.05R
-EAGLE CREEK   CLOUDY    41  37  86 W16G24    30.04R
KOKOMO +       LGT RAIN  37  36  96 W17       30.03R FOG
MARION +       CLOUDY    37  37 100 W17G24    30.02R
MT COMFORT *+  CLOUDY    41  39  93 W14       30.04R
SHELBYVILLE    CLOUDY    44  40  85 SW12      30.04R
ZIONSVILLE +   CLOUDY    38  37  93 W15       30.05R

$$

INZ033-034-041-042-049-050-058-059-180400-
EAST CENTRAL INDIANA

CITY           SKY/WX    TMP DP  RH WIND       PRES   REMARKS
MUNCIE         CLOUDY    42  39  89 W16G22    30.01R

$$

INZ060-061-067>069-081>083-085>088-180400-
SOUTHWEST INDIANA

CITY           SKY/WX    TMP DP  RH WIND       PRES   REMARKS
EVANSVILLE     CLOUDY    44  40  85 W8        30.15R
HUNTINGBURG *+ CLOUDY    43  41  93 W12       30.13R
WASHINGTON +   CLOUDY    42  40  94 W10       30.12R

$$

INZ062-063-066-070>080-084-089>092-180400-
SOUTH CENTRAL AND SOUTHEAST INDIANA

CITY           SKY/WX    TMP DP  RH WIND       PRES   REMARKS
BLOOMINGTON    LGT RAIN  43  39  86 W16G24    30.07R FOG
MADISON *+     CLOUDY    45  41  87 SW12      30.09R
NORTH VERNON + CLOUDY   N/A N/A N/A W10       30.08R HAZE
SEYMOUR +      CLOUDY    45  43  93 W9G16     30.08R

$$




USA.gov is the U.S. government's official web portal to all federal, state and local government web resources and services.